Regional Weather Roundup
Issued by NWS

Home | Current Version | Previous Version | Text Only | Print | Product List | Glossary On
Versions: 1 2 3 4 5 6 7 8 9 10 11 12 13 14 15 16 17 18 19 20 21 22 23 24 25 26 27 28 29 30 31 32 33 34 35 36 37 38 39 40 41 42 43 44 45 46 47 48 49 50
000
ASUS43 KTOP 041859
RWRKS

WEATHER ROUNDUP FOR KANSAS
NATIONAL WEATHER SERVICE GOODLAND KS
200 PM CDT SAT JUL 04 2015

NOTE:  "FAIR" INDICATES FEW OR NO CLOUDS BELOW 12,000 FEET WITH NO
SIGNIFICANT WEATHER AND/OR OBSTRUCTIONS TO VISIBILITY.

KSZ001>006-013>018-027>032-041>047-042000-
NORTHWEST KANSAS

CITY           SKY/WX    TMP DP  RH WIND       PRES   REMARKS
GOODLAND       SUNNY     90  59  35 S18G28    29.94F
HAYS           SUNNY     88  64  45 S17G25    29.96F
HILL CITY      SUNNY     91  62  37 SE15G25   29.93F
RUSSELL        MOSUNNY   86  65  49 S15G23    29.95F
$$

KSZ061>065-074>080-084>089-042000-
SOUTHWEST KANSAS

CITY           SKY/WX    TMP DP  RH WIND       PRES   REMARKS
DODGE CITY     SUNNY     87  60  40 S16G23    29.98F
ELKHART          N/A     92  63  38 S16         N/A
GARDEN CITY    SUNNY     86  63  45 S20G29    29.96F
GREAT BEND     MOSUNNY   84  66  54 S14G21    29.98S
LIBERAL        SUNNY     88  63  42 S15G21    29.99F
$$

KSZ066>073-081>083-090>101-042000-
SOUTHEAST KANSAS

CITY           SKY/WX    TMP DP  RH WIND       PRES   REMARKS
CHANUTE        SUNNY     84  62  47 E5        29.99F
COFFEYVILLE    PTSUNNY   87  66  49 CALM      29.96F
HUTCHINSON     SUNNY     86  63  45 SE10      29.98S
MEDICINE LODGE   N/A     88  63  43 SE12G17   29.95F
NEWTON         SUNNY     84  61  45 SE10      30.01S
PARSONS        MOSUNNY   84  68  58 CALM      29.99F
WICHITA INTL   MOSUNNY   86  61  42 SE7       29.97S
WICHITA JABRA  SUNNY     85  61  44 SE9G18    29.97F
WINFIELD       SUNNY     88  64  44 S12       29.97F
$$

KSZ007>012-019>026-033>040-048>060-102>105-042000-
NORTHEAST KANSAS

CITY           SKY/WX    TMP DP  RH WIND       PRES   REMARKS
CONCORDIA      MOSUNNY   83  63  50 SE13G22   29.97F
EMPORIA        SUNNY     84  61  45 SE10      29.98F
LAWRENCE       SUNNY     80  63  55 S6        30.00F
MANHATTAN      MOSUNNY   84  62  47 SE9       29.97F
OLATHE IND     SUNNY     81  62  52 VRB3      30.01F
OLATHE EXE     SUNNY     78  60  53 MISG      30.01F
SALINA         SUNNY     89  60  37 S7        29.97S
TOPEKA BILLARD MOSUNNY   82  62  50 E6        29.99F
TOPEKA FORBES  MOSUNNY   82  62  50 S8        30.00F
$$



USA.gov is the U.S. government's official web portal to all federal, state and local government web resources and services.